www.pogodaiklimat.ru

Погода и климат >> Архив погоды >> Россия >> Саратовская область >> Хвалынск


ПОГОДА в Хвалынске

  • Прогноз погоды в Хвалынске
  • Монитор погоды в Хвалынске

АРХИВ ПОГОДЫ в Хвалынске

Время (UTC), дата Ветер
(напр.,м/с)
 
Видим.   Явления Облачность Т
(С)
Тd
(С)
f
(%)
Тe
(С)
Тes
(С)
Комфортность P
(гПа)
Po
(гПа)
Тmin
(С)
Tmax
(С)
R
(мм)
R24
(мм)
S
(см)
18 19.05 С 3
{11}
20 км ясно +9.4 -1.4 47 +8 +8 1012.5 1004.5
21 19.05 С 4 50 км ясно +6.3 -0.7 61 +3 +3 1014.3 1006.2
00 20.05 СЗ 3 50 км ясно +4.1 -1.2 68 +1 +1 1015.0 1006.9
03 20.05 СЗ 4 20 км 8/8 1470 м
[Sc]
+6.1 -0.7 62 +3 +3 1016.3 1008.2 +3.9
06 20.05 С 5 20 км 10/5 1000 м
[Sc Ac und]
+10.7 -1.0 44 +8 +9 1016.6 1008.6
09 20.05 С 4
{11}
20 км 10/0
[Ac und]
+12.9 -1.1 38 +12 +15 1016.0 1008.0
12 20.05 СЗ 5
{10}
20 км 10/0
[Ac und]
+13.3 -0.9 37 +12 +13 1015.8 1007.9
15 20.05 С 5
{10}
20 км 10/3 1000 м
[Sc Ac und]
+12.2 +2.5 51 +10 +10 1015.6 1007.6 +14.6
18 20.05 СЗ 2 50 км 8/0
[Ac As]
+9.8 +3.0 63 +9 +9 1016.9 1008.9
21 20.05 СЗ 2 50 км 10/0
[Ac und]
+7.9 +2.3 68 +6 +6 1017.4 1009.3
00 21.05 СЗ 2 20 км 3/0
[Ac trans]
+7.6 +1.5 65 +6 +6 1017.7 1009.6
03 21.05 СЗ 5 20 км ясно +9.0 +1.6 60 +6 +7 1018.6 1010.6 +6.8
06 21.05 С 5 20 км ясно +14.4 -0.2 37 +13 +19 1019.1 1011.2
09 21.05 В 3 20 км 4/4 1000 м
[Cu hum]
+15.7 -0.8 32 +15 +23 1018.7 1010.8
12 21.05 Ю 2 20 км 3/3 1000 м
[Cu hum]
+18.2 0.0 29 +19 +26 1017.5 1009.7
15 21.05 ЮВ 1 20 км ясно +17.1 +2.2 37 +18 +20 1016.1 1008.3 +19.5
18 21.05 З 2 50 км ясно +15.6 -0.7 33 +16 +16 1016.2 1008.4
21 21.05 ЮЗ 1 50 км ясно +15.0 -1.1 33 +16 +16 1016.1 1008.2
00 22.05 штиль 0 20 км 6/0
[Ac trans Ci fib]
+11.0 +0.5 48 +11 +11 1015.3 1007.4
03 22.05 штиль 0 20 км 10/0
[Ci fib]
+13.3 +5.6 60 +13 +15 1014.9 1007.0 +10.3
06 22.05 З 2 20 км 10/0
[Ci fib]
+20.3 +4.6 36 +22 +31 комфорт 1014.2 1006.4
09 22.05 ЮЗ 3 20 км 10/0
[Ac lent Ci sp]
+23.0 +5.0 31 +23 +32 комфорт 1012.4 1004.8
12 22.05 З 3
{10}
20 км 8/5 1000 м
[Cu Sc Ci sp]
+24.1 +6.6 32 +24 +28 комфорт 1010.4 1002.9
15 22.05 ЮЗ 3
{10}
20 км 8/3 1000 м
[Sc diur, vesp Ac cast Ci fib]
+24.0 +5.2 30 +24 +24 комфорт 1009.5 1001.9 +25.9
18 22.05 З 3 50 км 10/3 1000 м
[Sc Ci fib]
+19.7 +3.2 33 +20 +20 1009.4 1001.7
21 22.05 З 4
{11}
50 км 4/0
[Ci fib]
+18.1 +6.5 47 +18 +18 1008.7 1001.0
00 23.05 З 4
{10}
20 км 4/0
[Ci fib]
+16.9 +6.2 49 +16 +16 1008.2 1000.5
03 23.05 ЮЗ 4 20 км 6/0
[Ac trans Ci sp]
+18.7 +5.7 42 +19 +20 1007.7 1000.0 +16.1
06 23.05 ЮЗ 3
{10}
20 км 10/0
[Ci sp]
+22.1 +4.9 33 +22 +30 комфорт 1007.1 999.5
09 23.05 ЮЗ 6-10
{12}
20 км 10/1 1000 м
[Cu hum Ci fib]
+24.5 +4.8 28 +24 +29 комфорт 1005.5 997.9
12 23.05 Ю 6-12
{14}
20 км 4/3 1000 м
[Cu hum Ci fib]
+24.6 +5.3 29 +24 +27 комфорт 1003.0 995.5
15 23.05 ЮЗ 4-10
{13}
20 км 6/4 1000 м
[Sc diur, vesp Ci fib]
+22.7 +9.4 43 +24 +25 комфорт 1001.9 994.3 +24.9
18 23.05 Ю 2
{10}
20 км 3/0
[Ac cuf]
+17.5 +10.7 64 +18 +18 1002.1 994.4
21 23.05 Ю 2 50 км 3/0
[Ac trans]
+16.0 +10.0 68 +16 +16 1001.3 993.5
00 24.05 З 2 50 км 10/0
[Ac und]
+16.7 +12.3 75 +17 +17 1000.1 992.4
03 24.05 Ю 2 20 км 10/3 600 м
[Sc Ac As Ci fib]
+17.2 +11.7 70 +18 +18 1000.6 992.9 +14.9
06 24.05 С 3 10 км слаб. ливневой дождь 10/8 300 м
[Cb cap Ac As]
+14.6 +13.7 94 +14 +14 1002.9 995.1 +14.6
09 24.05 СВ 5
{11}
20 км {ливн. осадки} 10/0
[Ac cuf]
+13.4 +10.5 83 +11 +14 1006.1 998.3
12 24.05 СВ 6-10
{11}
20 км {ливн. осадки} 8/4 1000 м
[Sc Ac cuf Ci fib]
+13.8 +8.0 68 +12 +13 1007.6 999.7
15 24.05 СВ 6-11
{12}
20 км 6/0
[Ci fib]
+12.9 +4.5 57 +11 +11 1009.9 1002.0 +17.2 3
18 24.05 С 4
{11}
20 км ясно +10.8 +3.8 62 +9 +9 1012.8 1004.9
21 24.05 СВ 4 50 км ясно +9.8 +2.5 60 +7 +7 1014.8 1006.8
00 25.05 В 4 50 км ясно +7.9 +1.5 64 +5 +5 1016.3 1008.2
03 25.05 ЮВ 4 20 км 4/0
[Ci fib]
+9.2 +1.8 60 +7 +8 1017.7 1009.7 +7.5
06 25.05 В 4 20 км ясно +13.0 -1.1 38 +12 +19 1018.2 1010.2
09 25.05 С 3 20 км 3/0
[Ci fib]
+14.7 +1.7 41 +14 +27 опасность
простуды
1017.1 1009.2
12 25.05 СВ 2 20 км 3/0
[Ci fib]
+16.1 -0.6 32 +16 +26 1015.6 1007.7
15 25.05 С 1 20 км 10/0
[Ci fib]
+15.8 +3.6 44 +17 +18 1014.4 1006.5 +17.1
18 25.05 штиль 0 20 км 10/0
[Ci fib]
+13.8 +1.1 42 +14 +14 1014.3 1006.4
21 25.05 ЮЗ 1 50 км ясно +10.6 +2.1 56 +11 +11 1013.8 1005.8
00 26.05 Ю 1 20 км ясно +9.3 +0.8 55 +9 +9 1012.9 1004.9
03 26.05 Ю 2 20 км 10/0
[Ac As Ci fib]
+12.9 +0.7 43 +12 +14 1012.4 1004.5 +9.0
06 26.05 Ю 1 20 км 4/0
[Cc]
+18.2 +2.0 34 +19 +32 опасность
простуды
1010.9 1003.1
09 26.05 Ю 3 20 км 10/0
[Ac und]
+20.7 +5.3 36 +22 +26 комфорт 1009.1 1001.4
12 26.05 ЮВ 4 20 км 8/0
[Ac As]
+22.0 +11.0 50 +24 +27 комфорт 1007.5 999.9
15 26.05 Ю 3
{11}
20 км гроза, ливневой дождь 10/6 600 м
[Cb cap Ac As]
+17.2 +15.3 89 +17 +17 1005.4 997.7 +23.5 2

 

Местоположение метеостанции Хвалынск (Саратовская область, Россия): широта 52.50 долгота 48.08 высота над уровнем моря 88 м.

В архиве по умолчанию представлена погода в Хвалынске за последнюю неделю. Архивные данные за месяц целиком и за предыдущие месяцы, начиная с января 2011 года, Вы можете получить, выбрав интересующий диапазон дат из раскрывающегося списка и нажав кнопку "Ввод!".


*Определитесь, кто Вы:
робот инопланетянин человек

Внимание! Время в таблицах - всемирное. Для получения местного времени необходимо прибавить поправку, которая равна 4 ч.

Смотрите также архив погоды в соседних городах и на ближайших метеорологических станциях:

Погода в Приволжье (Самарская область, Россия) (55 км)
Погода в Балаково (Саратовская область, Россия) (56 км)
Погода в Пугачеве (Саратовская область, Россия) (73 км)
Погода в Сызрани (Самарская область, Россия) (79 км)
Погода в Канадее (Ульяновская область, Россия) (82 км)
Погода в Безенчуке (Самарская область, Россия) (105 км)
Погода в Карабулаке (Саратовская область, Россия) (118 км)
Погода в Чапаевске (Самарская область, Россия) (124 км)
Погода в Ершове (Саратовская область, Россия) (127 км)
Погода в Радищево (Пензенская область, Россия) (127 км)

Пояснения к столбцам:

Ветер - указаны скорость ветра в м/с - средняя за 10 мин, порывы в срок и между сроками (в фигурных скобках) и направление, откуда дует ветер: С - северный, СВ - северо-восточный, В - восточный, ЮВ - юго-восточный, Ю - южный, ЮЗ - юго-западный, З - западный, СЗ - северо-западный.
Видимость - горизонтальная дальность видимости в метрах или километрах. При видимости от 1 до 10 км при отсутствии осадков обычно наблюдается дымка, при ухудшении видимости до 1 км и менее - туман. В сухую погоду видимость может ухудшаться дымом, пылью или мглою.
Явления - указаны атмосферные явления, наблюдавшиеся в срок или в последний час перед сроком; фигурными скобками обозначены явления, наблюдавшиеся между сроками (за 1-3 часа до срока); квадратными скобками обозначены град или гололедные отложения с указанием их диаметра в мм.
Облачность - указаны через наклонную черту общая и нижняя облачность в баллах и высота нижней границы облаков в метрах; квадратными скобками обозначены формы облаков: Ci - перистые, Cs - перисто-слоистые, Cc - перисто-кучевые, Ac - высококучевые, As - высокослоистые, Sc - слоисто-кучевые, Ns - слоисто-дождевые, Cu - кучевые, Cb - кучево-дождевые. Подробнее классификацию облаков см. в Атласе облаков (PDF).
T - Температура воздуха - температура, измеренная на высоте 2 м над землей.
Td - Температура точки росы - температура, при понижении до которой содержащийся в воздухе водяной пар достигнет насыщения.
f - Относительная влажность воздуха - влажноcть воздуха, измеренная на высоте 2 м над землей.
Te - Эффективная температура - температура, которую ощущает одетый по сезону человек в тени. Характеристика душности погоды. При расчете учитывается влияние влажности воздуха и скорости ветра на теплоощущения человека.
Tes - Эффективная температура на солнце - температура, которую ощущает человек, с поправкой на солнечный нагрев. Характеристика знойности погоды. Зависит от высоты солнца над горизонтом, облачности и скорости ветра. Ночью, в пасмурную погоду, а также при ветре 12 м/с и более поправка равна нулю.
P - Атмосферное давление - приведенное к уровню моря атмосферное давление.
Po - Атмосферное давление - измеренное на уровне метеостанции атмосферное давление.
Tmin - Минимальная температура - минимум температуры воздуха на высоте 2 м над землей.
Tmax - Максимальная температура - максимум температуры воздуха на высоте 2 м над землей.
R - Количество осадков - Количество выпавших осадков за период времени, мм. При наведении курсора мыши на число - период времени, за который выпало указанное количество осадков.
R24 - Количество осадков - Количество выпавших осадков за 24 часа, мм.
S - Снежный покров - Высота снежного покрова, см. При наведении курсора мыши на число - состояние снежного покрова и степень покрытия местности в баллах.